This demonstration page uses our WeatherBlox Daily Observations layout. Learn more.

40.92945, -100.16068

Hourly Observations for June 24, 2015

Temp ( °F °C ) Dew Point ( °F °C ) Humidity (%) Winds ( mph kmh ) Pressure ( in mb ) Visibility ( mi km ) Precip ( " mm )
12:15 am 00:15 Clear 62 16.5 59 14.8 90 90 E 6 9 29.97 1015 10 16.0934 N/A
12:35 am 00:35 Clear 62 16.6 59 15 90 90 ENE 8 13 29.97 1015 10 16.0934 N/A
12:55 am 00:55 Clear with Thunderstorms 63 17.2 59 14.8 86 86 NE 6 9 29.97 1015 10 16.0934 N/A
1:15 am 01:15 Clear with Thunderstorms 63 17.3 58 14.7 85 85 E 8 13 29.97 1015 10 16.0934 N/A
1:35 am 01:35 Clear 63 17.3 59 14.8 85 85 ENE 9 15 29.97 1015 10 16.0934 N/A
1:55 am 01:55 Clear 63 17.3 59 15 86 86 ENE 8 13 29.97 1015 10 16.0934 N/A
2:15 am 02:15 Clear 63 17.4 59 15.1 86 86 ESE 3 6 29.97 1015 10 16.0934 N/A
2:35 am 02:35 Clear 63 17 59 15.1 89 89 N 7 11 29.97 1015 10 16.0934 N/A
2:55 am 02:55 Clear 62 16.5 59 15.1 92 92 NE 7 11 29.97 1015 10 16.0934 N/A
3:15 am 03:15 Clear 61 16.3 59 15 92 92 ENE 5 7 30 1016 10 16.0934 N/A
3:35 am 03:35 Clear 61 16 58 14.7 92 92 ENE 9 15 29.97 1015 10 16.0934 N/A
3:55 am 03:55 Clear 60 15.8 58 14.6 93 93 ENE 8 13 29.94 1014 10 16.0934 N/A
4:15 am 04:15 Clear 60 15.6 58 14.5 93 93 ENE 8 13 29.94 1014 10 16.0934 N/A
4:35 am 04:35 Clear 60 15.7 58 14.7 94 94 ENE 10 17 29.88 1012 10 16.0934 N/A
4:55 am 04:55 Clear 60 15.7 58 14.7 94 94 S 6 9 29.94 1014 10 16.0934 N/A
5:15 am 05:15 Clear 60 15.5 58 14.5 94 94 ENE 7 11 29.88 1012 7 11.26538 N/A
5:35 am 05:35 Clear 60 15.7 59 14.8 94 94 E 3 6 29.94 1014 7 11.26538 N/A
5:55 am 05:55 Partly Cloudy with Mist and Fog 59 15.2 58 14.3 94 94 NE 5 7 29.94 1014 5 8.0467 N/A
6:15 am 06:15 Partly Cloudy with Mist and Fog 59 15 58 14.2 95 95 NE 5 7 29.94 1014 3 4.82802 N/A
6:35 am 06:35 Sunny with Mist and Fog 59 15 57 14.1 94 94 ENE 3 6 29.94 1014 3 4.82802 N/A
6:55 am 06:55 Sunny with Mist and Fog 60 15.5 59 14.8 96 96 NNE 5 7 29.94 1014 4 6.43736 N/A
7:15 am 07:15 Sunny with Mist and Fog 60 15.8 59 15.1 96 96 ENE 3 6 29.97 1015 5 8.0467 N/A
7:35 am 07:35 Sunny with Mist and Fog 61 15.9 59 15.2 96 96 Calm 29.97 1015 5 8.0467 N/A
7:55 am 07:55 Sunny 63 17 61 16.2 95 95 E 5 7 29.94 1014 7 11.26538 N/A
8:15 am 08:15 Sunny 64 18 63 17.1 95 95 ENE 6 9 29.94 1014 10 16.0934 N/A
8:35 am 08:35 Sunny 66 18.8 63 17.4 92 92 E 5 7 29.94 1014 10 16.0934 N/A
8:55 am 08:55 Sunny 66 19 63 17.3 90 90 NE 3 6 29.94 1014 10 16.0934 N/A
9:15 am 09:15 Mostly Cloudy 66 19.1 63 17.4 90 90 N 9 15 29.97 1015 10 16.0934 N/A
9:35 am 09:35 Cloudy 68 20.1 65 18.1 88 88 N 18 30 29.97 1015 10 16.0934 N/A
9:55 am 09:55 Cloudy 66 18.8 63 17 89 89 N 18 30 29.97 1015 10 16.0934 N/A
10:15 am 10:15 Cloudy 68 20.2 64 17.8 86 86 NNE 17 28 29.97 1015 10 16.0934 N/A
10:35 am 10:35 Cloudy 69 20.7 64 17.9 84 84 NE 17 28 29.94 1014 10 16.0934 N/A
10:55 am 10:55 Mostly Cloudy 70 21 65 18.1 84 84 ENE 12 19 29.94 1014 10 16.0934 N/A
11:15 am 11:15 Mostly Cloudy 71 21.7 65 18.6 83 83 ENE 14 22 29.94 1014 10 16.0934 N/A
11:35 am 11:35 Mostly Cloudy 72 22.2 66 18.9 82 82 E 14 22 29.94 1014 10 16.0934 N/A
11:55 am 11:55 Partly Cloudy 73 22.9 67 19.4 81 81 E 10 17 29.94 1014 10 16.0934 N/A
12:15 pm 12:15 Sunny 75 23.8 68 19.9 79 79 E 14 22 29.91 1013 10 16.0934 N/A
12:35 pm 12:35 Sunny 75 24.1 68 20 78 78 E 14 22 29.88 1012 10 16.0934 N/A
12:55 pm 12:55 Sunny 77 24.8 69 20.3 76 76 E 9 15 29.88 1012 10 16.0934 N/A
1:15 pm 13:15 Sunny 78 25.5 69 20.4 73 73 ESE 10 17 29.88 1012 10 16.0934 N/A
1:35 pm 13:35 Sunny 79 26 69 20.4 71 71 ESE 8 13 29.88 1012 10 16.0934 N/A
1:55 pm 13:55 Sunny 80 26.9 69 20.5 68 68 SSE 12 19 29.83 1010 7 11.26538 N/A
2:15 pm 14:15 Sunny 81 27 69 20.8 69 69 SSE 9 15 29.83 1010 10 16.0934 N/A
2:35 pm 14:35 Sunny 82 27.9 70 21.3 67 67 ESE 7 11 29.83 1010 10 16.0934 N/A
2:55 pm 14:55 Sunny 84 28.9 70 21.2 63 63 SE 7 11 29.8 1009 10 16.0934 N/A
3:15 pm 15:15 Sunny 84 29.1 69 20.6 60 60 Calm 29.83 1010 10 16.0934 N/A
3:35 pm 15:35 Sunny 85 29.2 69 20.3 59 59 Calm 29.83 1010 10 16.0934 N/A
3:55 pm 15:55 Sunny 86 29.8 69 20.5 57 57 Calm 29.83 1010 10 16.0934 N/A
4:15 pm 16:15 Sunny 86 30.2 69 20.6 56 56 Calm 29.83 1010 10 16.0934 N/A
4:35 pm 16:35 Sunny 86 30.1 68 20.2 55 55 W 3 6 29.83 1010 10 16.0934 N/A
4:55 pm 16:55 Sunny 86 30.2 69 20.8 57 57 NNE 6 9 29.83 1010 10 16.0934 N/A
5:15 pm 17:15 Sunny 86 30 71 21.7 61 61 NNE 6 9 29.77 1008 10 16.0934 N/A
5:35 pm 17:35 Sunny 86 30 71 21.7 61 61 N 5 7 29.77 1008 10 16.0934 N/A
5:55 pm 17:55 Sunny 85 29.7 70 21.2 60 60 NNE 6 9 29.77 1008 10 16.0934 N/A
6:15 pm 18:15 Sunny 85 29.7 72 22.3 64 64 N 9 15 29.77 1008 10 16.0934 N/A
6:35 pm 18:35 Sunny 84 29.1 71 21.4 63 63 NNE 9 15 29.8 1009 10 16.0934 N/A
6:55 pm 18:55 Sunny 83 28.6 70 21.1 64 64 NNE 10 17 29.8 1009 10 16.0934 N/A
7:15 pm 19:15 Sunny 83 28.3 71 21.6 67 67 NNE 12 19 29.8 1009 10 16.0934 N/A
7:35 pm 19:35 Sunny 81 27.1 70 20.9 69 69 NNE 10 17 29.8 1009 10 16.0934 N/A
7:55 pm 19:55 Sunny 80 26.8 70 20.9 70 70 NNE 7 11 29.83 1010 10 16.0934 N/A
8:15 pm 20:15 Sunny 79 26.2 69 20.7 72 72 NNE 6 9 29.85 1011 10 16.0934 N/A
8:35 pm 20:35 Sunny 78 25.5 69 20.8 75 75 NE 7 11 29.85 1011 10 16.0934 N/A
8:55 pm 20:55 Sunny 77 25.2 70 21 78 78 NE 7 11 29.85 1011 10 16.0934 N/A
9:15 pm 21:15 Clear 76 24.6 69 20.8 79 79 NE 7 11 29.85 1011 10 16.0934 N/A
9:35 pm 21:35 Clear 75 24.1 69 20.7 81 81 NNE 6 9 29.85 1011 10 16.0934 N/A
9:55 pm 21:55 Clear 74 23.3 69 20.5 84 84 NNE 6 9 29.91 1013 10 16.0934 N/A
10:15 pm 22:15 Clear 73 22.6 68 20 85 85 NE 6 9 29.91 1013 10 16.0934 N/A
10:35 pm 22:35 Clear 72 22.1 68 19.8 87 87 NE 7 11 29.91 1013 10 16.0934 N/A
10:55 pm 22:55 Clear 72 22.1 68 20.1 88 88 NNE 6 9 29.91 1013 10 16.0934 N/A
11:15 pm 23:15 Clear 72 22 68 20 88 88 NE 7 11 29.91 1013 10 16.0934 N/A
11:35 pm 23:35 Clear 71 21.6 68 19.8 90 90 NE 6 9 29.91 1013 10 16.0934 N/A
11:55 pm 23:55 Clear 70 21.2 67 19.6 91 91 NNE 5 7 29.91 1013 10 16.0934 N/A

Powered by AerisWeather